Weather History for K2I0 - August, 2013

Change the Weather History Date:

Friday, August 23, 2013

  Actual Average (KOWB) Record (KOWB)
Temperature  
Mean Temperature 79 °F -  
Max Temperature 88 °F 87 °F 100 °F (1947)
Min Temperature 71 °F 64 °F 50 °F (1950)
Cooling Degree Days 14    
Growing Degree Days 29 (Base 50)    
Moisture  
Dew Point 74 °F    
Average Humidity 91    
Maximum Humidity 100    
Minimum Humidity 64    
Precipitation  
Precipitation 0.02 in - - ()
Sea Level Pressure  
Sea Level Pressure 30.07 in    
Wind  
Wind Speed 1 mph (North)    
Max Wind Speed 9 mph    
Max Gust Speed -    
Visibility 7 miles    
Events Fog , Rain    
Averages and records for this station are not official NWS values.
T = Trace of Precipitation, MM = Missing Value Source: NWS Daily Summary

Daily Weather History Graph

Daily Weather History Graph

Search for Another Location

Airport or City:

Trip Planner

Search our weather history database for the weather conditions in past years. The results will help you decide how hot, cold, wet, or windy it might be!

Date:

Astronomy

Aug. 23, 2013 Rise Set
Actual Time 6:12 AM CDT 7:30 PM CDT
Civil Twilight 5:45 AM CDT 7:57 PM CDT
Nautical Twilight 5:13 AM CDT 8:30 PM CDT
Astronomical Twilight 4:38 AM CDT 9:04 PM CDT
Moon 8:55 PM CDT (8/23) 9:02 AM CDT (8/23)
Length of Visible Light 14h 12m
Length of Day
13h 18m
Waning Gibbous, 91% of the Moon is Illuminated
Aug 23
Waning Gibbous
Aug 28
Last Quarter
Sep 5
New
Sep 12
First Quarter
Sep 19
Full

Hourly Weather History & Observations

Time (CDT) Temp. Heat Index Dew Point Humidity Pressure Visibility Wind Dir Wind Speed Gust Speed Precip Events Conditions
12:15 AM 74.3 °F - 73.9 °F 99% 30.07 in 7.0 mi Calm Calm - N/A   Clear
12:35 AM 74.5 °F - 74.3 °F 99% 30.07 in 7.0 mi SW 3.5 mph - N/A   Clear
12:55 AM 74.1 °F - 73.6 °F 98% 30.06 in 7.0 mi SW 3.5 mph - N/A   Clear
1:15 AM 74.3 °F - 73.8 °F 98% 30.06 in 7.0 mi WSW 4.6 mph - N/A   Clear
1:35 AM 74.3 °F - 73.4 °F 97% 30.05 in 7.0 mi Calm Calm - N/A   Clear
1:55 AM 73.8 °F - 73.4 °F 99% 30.04 in 7.0 mi Calm Calm - N/A   Clear
2:15 AM 74.3 °F - 73.2 °F 96% 30.04 in 10.0 mi Calm Calm - N/A   Clear
2:35 AM 73.8 °F - 73.2 °F 98% 30.04 in 7.0 mi Calm Calm - N/A   Clear
2:55 AM 73.0 °F - 72.7 °F 99% 30.04 in 7.0 mi Calm Calm - N/A   Clear
3:15 AM 73.4 °F - 73.4 °F 100% 30.04 in 7.0 mi Calm Calm - N/A   Clear
3:35 AM 72.7 °F - 72.3 °F 99% 30.04 in 7.0 mi Calm Calm - N/A   Clear
3:55 AM 72.9 °F - 72.7 °F 99% 30.04 in 7.0 mi Calm Calm - N/A   Clear
4:15 AM 72.5 °F - 72.5 °F 100% 30.04 in 5.0 mi Calm Calm - N/A   Clear
4:35 AM 72.5 °F - 72.5 °F 100% 30.04 in 7.0 mi Calm Calm - N/A   Clear
4:55 AM 72.1 °F - 72.0 °F 99% 30.05 in 7.0 mi Calm Calm - N/A   Clear
5:15 AM 71.4 °F - 71.4 °F 100% 30.05 in 5.0 mi Calm Calm - N/A   Clear
5:35 AM 71.6 °F - 71.6 °F 100% 30.06 in 5.0 mi Calm Calm - N/A   Clear
5:55 AM 71.8 °F - 71.8 °F 100% 30.06 in 5.0 mi Calm Calm - N/A   Mostly Cloudy
6:15 AM 71.8 °F - 71.8 °F 100% 30.07 in 5.0 mi Calm Calm - N/A   Mostly Cloudy
6:35 AM 72.1 °F - 72.1 °F 100% 30.07 in 4.0 mi Calm Calm - N/A   Mostly Cloudy
6:55 AM 73.0 °F - 73.0 °F 100% 30.08 in 4.0 mi Calm Calm - N/A   Mostly Cloudy
7:15 AM 73.8 °F - 73.8 °F 100% 30.08 in 5.0 mi Calm Calm - N/A   Mostly Cloudy
7:35 AM 75.6 °F - 74.5 °F 96% 30.08 in 5.0 mi Calm Calm - N/A   Mostly Cloudy
7:55 AM 76.3 °F - 74.8 °F 95% 30.08 in 7.0 mi Calm Calm - N/A   Mostly Cloudy
8:15 AM 77.0 °F - 75.2 °F 94% 30.09 in 7.0 mi Calm Calm - N/A   Scattered Clouds
8:35 AM 77.5 °F - 75.4 °F 93% 30.09 in 7.0 mi Calm Calm - N/A   Scattered Clouds
8:55 AM 78.3 °F - 75.2 °F 90% 30.09 in 10.0 mi NNE 4.6 mph - N/A   Mostly Cloudy
9:15 AM 77.5 °F - 75.2 °F 92% 30.10 in 7.0 mi Calm Calm - N/A   Mostly Cloudy
9:35 AM 77.5 °F - 75.0 °F 92% 30.10 in 10.0 mi ENE 5.8 mph - N/A   Scattered Clouds
9:55 AM 77.9 °F - 75.2 °F 91% 30.09 in 7.0 mi Calm Calm - N/A   Clear
10:15 AM 79.7 °F - 75.7 °F 88% 30.09 in 10.0 mi Calm Calm - N/A   Clear
10:35 AM 81.0 °F 87.1 °F 75.7 °F 84% 30.09 in 10.0 mi Calm Calm - N/A   Clear
10:55 AM 83.5 °F 91.6 °F 75.6 °F 77% 30.09 in 10.0 mi Calm Calm - N/A   Clear
11:15 AM 83.7 °F 91.3 °F 74.8 °F 75% 30.09 in 10.0 mi Calm Calm - N/A   Clear
11:35 AM 84.6 °F 92.1 °F 74.1 °F 71% 30.09 in 10.0 mi Calm Calm - N/A   Clear
11:55 AM 85.8 °F 93.4 °F 73.6 °F 67% 30.09 in 10.0 mi Calm Calm - N/A   Clear
12:15 PM 86.2 °F 95.1 °F 74.8 °F 69% 30.08 in 10.0 mi ENE 3.5 mph - N/A   Clear
12:35 PM 86.5 °F 94.2 °F 73.6 °F 65% 30.08 in 10.0 mi ENE 3.5 mph - N/A   Clear
12:55 PM 87.3 °F 95.3 °F 73.9 °F 64% 30.08 in 10.0 mi Calm Calm - N/A   Clear
1:15 PM 87.1 °F 95.9 °F 74.3 °F 66% 30.06 in 10.0 mi Calm Calm - N/A   Scattered Clouds
1:35 PM 86.9 °F 95.4 °F 74.3 °F 66% 30.06 in 10.0 mi East 5.8 mph - N/A   Scattered Clouds
1:55 PM 84.2 °F 92.3 °F 75.0 °F 74% 30.06 in 10.0 mi NE 6.9 mph - N/A Rain Rain
2:15 PM 76.8 °F - 75.2 °F 95% 30.05 in 5.0 mi North 6.9 mph - 0.01 in Rain Light Rain
2:35 PM 76.6 °F - 75.4 °F 96% 30.04 in 5.0 mi North 9.2 mph - 0.01 in Rain Light Rain
2:55 PM 77.4 °F - 75.2 °F 93% 30.05 in 7.0 mi NW 3.5 mph - 0.01 in   Scattered Clouds
3:15 PM 78.1 °F - 75.4 °F 91% 30.04 in 10.0 mi West 3.5 mph - N/A   Clear
3:35 PM 80.6 °F 85.7 °F 74.1 °F 81% 30.03 in 10.0 mi Calm Calm - N/A   Clear
3:55 PM 82.9 °F 89.9 °F 74.7 °F 76% 30.05 in 10.0 mi SW 3.5 mph - N/A   Clear
4:15 PM 84.2 °F 91.9 °F 74.8 °F 73% 30.05 in 10.0 mi Calm Calm - N/A   Clear
4:35 PM 86.0 °F 95.5 °F 75.6 °F 71% 30.05 in 10.0 mi South 4.6 mph - N/A   Scattered Clouds
4:55 PM 83.7 °F 91.7 °F 75.2 °F 76% 30.06 in 10.0 mi South 3.5 mph - N/A   Overcast
5:15 PM 81.5 °F 87.4 °F 74.5 °F 79% 30.05 in 7.0 mi North 3.5 mph - N/A Rain Rain
5:35 PM 79.3 °F - 73.6 °F 82% 30.04 in 10.0 mi NW 5.8 mph - 0.01 in Rain Light Rain
5:55 PM 79.2 °F - 73.2 °F 82% 30.04 in 10.0 mi Calm Calm - 0.01 in   Scattered Clouds
6:15 PM 80.6 °F 85.7 °F 74.1 °F 81% 30.04 in 10.0 mi Calm Calm - N/A   Clear
6:35 PM 80.2 °F 85.7 °F 75.6 °F 86% 30.04 in 10.0 mi Calm Calm - N/A   Clear
6:55 PM 79.0 °F - 75.6 °F 89% 30.05 in 7.0 mi North 4.6 mph - N/A   Clear
7:15 PM 77.4 °F - 75.6 °F 94% 30.05 in 7.0 mi Calm Calm - N/A   Clear
7:35 PM 76.5 °F - 75.6 °F 97% 30.06 in 5.0 mi Calm Calm - N/A   Clear
7:55 PM 76.3 °F - 75.4 °F 97% 30.06 in 7.0 mi Calm Calm - N/A   Scattered Clouds
8:15 PM 75.6 °F - 75.2 °F 99% 30.06 in 5.0 mi Calm Calm - N/A   Scattered Clouds
8:35 PM 75.4 °F - 75.2 °F 99% 30.07 in 4.0 mi Calm Calm - N/A   Clear
8:55 PM 75.6 °F - 74.5 °F 96% 30.08 in 7.0 mi Calm Calm - N/A   Clear
9:15 PM 73.9 °F - 73.8 °F 99% 30.09 in 4.0 mi Calm Calm - N/A   Clear
9:35 PM 73.6 °F - 73.6 °F 100% 30.09 in 1.8 mi Calm Calm - N/A   Mist
9:55 PM 72.7 °F - 72.7 °F 100% 30.09 in 2.0 mi Calm Calm - N/A   Clear
10:15 PM 72.7 °F - 72.7 °F 100% 30.09 in 1.8 mi Calm Calm - N/A   Mist
10:35 PM 72.7 °F - 72.7 °F 100% 30.09 in 2.5 mi Calm Calm - N/A   Clear
10:55 PM 72.5 °F - 72.5 °F 100% 30.09 in 0.8 mi Calm Calm - N/A   Mostly Cloudy
11:15 PM 72.7 °F - 72.7 °F 100% 30.10 in 0.5 mi Calm Calm - N/A Fog Fog
11:35 PM 72.7 °F - 72.7 °F 100% 30.10 in 0.2 mi Calm Calm - N/A Fog Fog
11:55 PM 71.2 °F - 71.2 °F 100% 30.10 in 0.2 mi Calm Calm - N/A Fog Fog